HK6REC-21 Weather Reports


time (UTC)temp
F
wind
direction
speed
knots
gust
knots
rain 1hr
in
rain 24hr
in
rain mn
in
humidity
%
barometer
mb
20260507063735 60 210 7.0 0.0 0.00 0.00 0.00 81 1015.0
20260507061734 60 210 7.0 0.0 0.00 0.00 0.00 81 1016.0
20260507055733 60 210 7.0 0.0 0.00 0.00 0.00 80 1015.0
20260507053732 60 210 7.0 0.0 0.00 0.00 0.00 80 1016.0
20260507051731 60 210 7.0 0.0 0.00 0.00 0.00 80 1017.0
20260507045730 60 210 7.0 0.0 0.00 0.00 0.00 80 1016.0
20260507043729 60 210 7.0 0.0 0.00 0.00 0.00 80 1016.0
20260507041728 60 210 7.0 0.0 0.00 0.00 0.00 80 1017.0
20260507035727 61 210 7.0 0.0 0.00 0.00 0.00 80 1016.0
20260507033726 61 210 7.0 0.0 0.00 0.00 0.00 80 1016.0
20260507031726 61 210 7.0 0.0 0.00 0.00 0.00 80 1016.0
20260507025725 62 210 7.0 0.0 0.00 0.00 0.00 80 1015.0
20260507023724 62 210 7.0 0.0 0.00 0.00 0.00 80 1015.0
20260507021723 62 210 7.0 0.0 0.00 0.00 0.00 80 1015.0
20260507015721 63 210 7.0 0.0 0.00 0.00 0.00 80 1014.0
20260507013721 63 210 7.0 0.0 0.00 0.00 0.00 80 1014.0
20260507011720 63 210 7.0 0.0 0.00 0.00 0.00 80 1014.0
20260507005719 64 210 7.0 0.0 0.00 0.00 0.00 80 1013.0
20260507003718 64 210 7.0 0.0 0.00 0.00 0.00 80 1013.0
20260507001717 65 210 7.0 0.0 0.00 0.00 0.00 80 1013.0
20260506235716 68 210 7.0 0.0 0.00 0.00 0.00 80 1013.0
20260506233715 71 210 7.0 0.0 0.00 0.00 0.00 80 1012.0
20260506231714 71 210 7.0 0.0 0.00 0.00 0.00 80 1011.0
20260506225713 72 210 7.0 0.0 0.00 0.00 0.00 80 1010.0
20260506223712 72 210 7.0 0.0 0.00 0.00 0.00 80 1010.0
20260506221711 72 210 7.0 0.0 0.00 0.00 0.00 80 1010.0
20260506215710 73 210 7.0 0.0 0.00 0.00 0.00 80 1009.0
20260506213709 73 210 7.0 0.0 0.00 0.00 0.00 79 1009.0
20260506211708 73 210 7.0 0.0 0.00 0.00 0.00 79 1010.0
20260506205707 74 210 7.0 0.0 0.00 0.00 0.00 79 1009.0
20260506203706 74 210 7.0 0.0 0.00 0.00 0.00 77 1009.0
20260506201705 75 210 7.0 0.0 0.00 0.00 0.00 77 1010.0
20260506195704 75 210 7.0 0.0 0.00 0.00 0.00 78 1009.0
20260506193703 75 0 4.3 0.0 0.00 0.00 0.00 79 1009.0
20260506191702 75 0 4.3 0.0 0.00 0.00 0.00 79 1010.0
20260506185701 75 0 3.5 0.0 0.00 0.00 0.00 80 1009.0
20260506183700 75 210 7.0 0.0 0.00 0.00 0.00 81 1010.0
20260506181700 75 210 7.0 0.0 0.00 0.00 0.00 81 1012.0
20260506175659 75 210 7.0 0.0 0.00 0.00 0.00 82 1011.0
20260506173658 75 210 7.0 0.0 0.00 0.00 0.00 82 1011.0
20260506171657 74 210 7.0 0.0 0.00 0.00 0.00 83 1013.0
20260506165656 75 200 3.5 0.0 0.00 0.00 0.00 83 1012.0
20260506163655 74 200 3.5 0.0 0.00 0.00 0.00 83 1012.0
20260506161654 75 200 3.5 0.0 0.00 0.00 0.00 83 1014.0
20260506155653 72 0 1.7 0.0 0.00 0.00 0.00 88 1013.0
20260506153652 73 0 1.7 0.0 0.00 0.00 0.00 88 1014.0
20260506151651 70 0 1.7 0.0 0.00 0.00 0.00 93 1016.0
20260506145650 71 0 1.7 0.0 0.00 0.00 0.00 94 1015.0
20260506143649 70 0 1.7 0.0 0.00 0.00 0.00 94 1015.0
20260506141648 71 0 1.7 0.0 0.00 0.00 0.00 94 1017.0
20260506135647 65 0 0.9 0.0 0.00 0.00 0.00 94 1016.0
20260506133646 66 0 0.9 0.0 0.00 0.00 0.00 94 1016.0
20260506131645 63 160 3.5 0.0 0.00 0.00 0.00 92 1017.0
20260506125644 62 160 3.5 0.0 0.00 0.00 0.00 91 1016.0
20260506123643 63 160 3.5 0.0 0.00 0.00 0.00 91 1016.0
20260506121643 63 160 3.5 0.0 0.00 0.00 0.00 91 1016.0
20260506115642 63 160 3.5 0.0 0.00 0.00 0.00 91 1016.0
20260506113641 63 160 3.5 0.0 0.00 0.00 0.00 91 1016.0
20260506111640 63 160 3.5 0.0 0.00 0.00 0.00 91 1016.0
20260506105639 63 160 3.5 0.0 0.00 0.00 0.00 91 1015.0
20260506103638 63 160 3.5 0.0 0.00 0.00 0.00 91 1015.0
20260506101637 63 160 3.5 0.0 0.00 0.00 0.00 91 1016.0
20260506095636 63 160 3.5 0.0 0.00 0.00 0.00 91 1015.0
20260506093635 63 160 3.5 0.0 0.00 0.00 0.00 91 1015.0
20260506091634 63 160 3.5 0.0 0.00 0.00 0.00 91 1016.0
20260506085633 63 160 3.5 0.0 0.00 0.00 0.00 91 1015.0
20260506083632 63 160 3.5 0.0 0.00 0.00 0.00 91 1015.0
20260506081631 63 160 3.5 0.0 0.00 0.00 0.00 91 1015.0
20260506071628 63 160 3.5 0.0 0.00 0.00 0.00 91 1016.0